World > North America > United States > New York

Hourly Springfield Center, NY Regional Weather

Feedback E-mail the Weather

Latest News

Springfield Center, NY Weather Maps

°F °C°F °C
Springfield Center Weather Map
UTC Time: 5/28/2022, 14:42
Your Time:

Springfield Center, NY Regional Weather

Expires:202205281500;;703194
ASUS41 KBGM 281410
RWRBGM

REGIONAL WEATHER ROUNDUP
NATIONAL WEATHER SERVICE BINGHAMTON NY
1000 AM EDT SAT MAY 28 2022

Note: "fair" indicates few or no clouds below 12,000 feet with no
significant weather and/or obstructions to visibility.

* = Station(s) that does not report precipitation, such as rain, 
snow, etc, also no thunder or fog.


NYZ009-015>018-022>025-036-037-044>046-055>057-062-281500
...Central New York...
  
CITY           SKY/WX    TMP DP  RH WIND       PRES   REMARKS
Binghamton     CLOUDY    62  56  80 NW8       29.77S                  
Cortland       CLOUDY    61  57  88 W7        29.78S                  
Dansville      CLOUDY    63  59  87 N9        29.80R                  
Elmira         LGT RAIN  62  59  90 W5        29.78R                  
Endicott       CLOUDY    64  57  77 W3        29.76F                  
Ithaca         LGT RAIN  60  60 100 NW7       29.79R FOG              
Hamilton       CLOUDY    61  57  88 W3        29.77R                  
Monticello     CLOUDY    65  63  93 NW6       29.75S                  
Norwich        CLOUDY    64  57  77 NW6       29.78S                  
Oneonta        MOSUNNY   64  57  77 W6        29.76F                  
Penn Yan       LGT RAIN  61  57  87 VRB6      29.79R FOG              
Rome           CLOUDY    64  61  90 VRB6      29.74S                  
Seneca Falls   RAIN      59  57  94 CALM      29.79R                  
Sidney         RAIN      64  61  88 CALM      29.76S                  
Skaneateles    LGT RAIN  59  59 100 W8        29.78R                  
Syracuse       LGT RAIN  61  59  93 W13       29.76R                  
$$
 

SKY/WX - Weather  TMP - Temperature  DP - Dew Point  RH - Humidity
WIND - Wind Direction/Speed PRES - Barometric Pressure VSB - Visibility
WCI - Wind Chill Index E13G22 Wind - East Wind 13 mph/Gusts of 22 mph

Trending Headlines

Springfield Center Radar Loop



Springfield Center Quick Facts


National Two Day Weather Forecast


E-mail the Springfield Center Weather Forecast

Voice your opinion or tell us about page issues...